COSMOS 1275 DEB

Satellite information

Favourite Embed

Satellite Type and Status

DEBRISIN ORBIT

Key statistics

Satellite COSMOS 1275 DEB at a glance.

Uptime

16104

Days in orbit

Revolutions

≈ 14.3

Per day

Orbit

LEO

Low Earth Orbit

Inclination

82.9

Latest

Satellite identification and parameters

Extended collection of information and parameters for COSMOS 1275 DEB.

Object identification

Identified? True

Debris? True

Object name: COSMOS 1275 DEB

International designator: 1981-053JX

Object number (NORAD): 14925

Object ID (CCSDS): 14925

Country: COMMONWEALTH OF INDEPENDENT STATES (CIS)

Current information (Y/N): Y

RCS size: SMALL

Orbital parameters

Period: 100.569 minutes

Inclination: 82.8537 deg

SMA: 7163.663 km

Apoapsis: 800.75 km

Periapsis: 770.306 km

RAAN: 211.0998 deg

Eccentricy: 0.0021249

Argument of periapsis: 50.3512 deg

Mean anomaly: 309.9546 deg

Mean motion: 14.31858426 rev/day

Mean motion (dot): 0.00002857 rev/day2

B* drag term: 0.0010592 1/REarth

Two-line elements (TLE)

Creation date: July 6, 2025, 6:05 p.m.

Reference frame: TEME

Reference center: EARTH

Epoch: July 6, 2025, 12:15 p.m. UTC

TLE line 0: 0 COSMOS 1275 DEB

TLE line 1: 1 14925U 81053JX 25187.51063172 .00002857 00000-0 10592-2 0 9997

TLE line 2: 2 14925 82.8537 211.0998 0021249 50.3512 309.9546 14.31858426231105

Live tracking on map

Real-time ground track for satellite COSMOS 1275 DEB.

In-orbit conjunctions

A list of the most updated potential collisions computed for object COSMOS 1275 DEB.

Target Orbit TCA Probability of collision Miss distance Type
ASUSAT SSO 2024-12-29 10:50:04 0.0001417343 775.0 (m) PAYLOAD
FENGYUN 1C DEB SSO 2024-06-27 20:29:04 0.0002044652 105.0 (m) DEBRIS

Associated space launch

Navigation satellite providing location information for the Tsiklon-B navigation system

COSMOS 1275 DEB was lifted into orbit during the mission ‘Kosmos-3M | Parus 27’, on board a Kosmos-3M space rocket.

The launch took place on June 4, 1981, 3:41 p.m. from 132/2.

For more information about the launch, click the button.

Launch to space Kosmos-3M | Parus 27
Kosmos-3M | Parus 27

Agency: N/A

Status: Launch Successful

Launch date: June 4, 1981, 3:41 p.m. UTC

Rocket: Kosmos-3M

Launch pad: 132/2

Location: Plesetsk Cosmodrome, Russian Federation

...

Latest news about this satellite

There are no fresh news available about this satellite. Check back as we update our databases every day.


Newsletter sign-up

Weekly statistics, charts and insights to help you stay on top of the space industry.